When you browse on this site, cookies collect data to enhance your experience and personalize the content and advertising you see.
Visit our Privacy Policy to learn more. By continuing to use the site, you agree to this use of cookies and data.
  • In Österreich
  • Länderverzeichnis
  • Für 7 Tage
  • Wassertemperatur
  • Satellitenkarten
  • Wetterkarte
  • News
  • Widgets
  • user-avatar
    Anmelden

    Stündliche Wetter Lankaran

    Heute, 21 Mai, Dienstag

    Zeit Temperatur Niederschläge Wind Luftdruck Luftfeuchtigkeit
    00:00 +9°C° 0 mm 1 m/S 632 mmHg 76%
    01:00 +8°C° 0 mm 1 m/S 632 mmHg 76%
    02:00 +8°C° 0 mm 1 m/S 632 mmHg 76%
    03:00 +8°C° 0 mm 1 m/S 632 mmHg 77%
    04:00 +9°C° 0 mm 1 m/S 633 mmHg 74%
    05:00 +8°C° 0 mm 2 m/S 633 mmHg 71%
    06:00 +9°C° 0 mm 2 m/S 634 mmHg 68%
    07:00 +12°C° 0 mm 2 m/S 635 mmHg 63%
    08:00 +12°C° 0 mm 3 m/S 636 mmHg 57%
    09:00 +14°C° 0 mm 4 m/S 637 mmHg 52%
    10:00 +14°C° 0 mm 4 m/S 637 mmHg 51%
    11:00 +15°C° 0 mm 5 m/S 637 mmHg 50%
    12:00 +15°C° 0 mm 5 m/S 637 mmHg 49%
    13:00 +15°C° 0 mm 5 m/S 637 mmHg 49%
    14:00 +15°C° 0 mm 5 m/S 637 mmHg 50%
    15:00 +14°C° 0 mm 4 m/S 637 mmHg 51%
    16:00 +13°C° 0 mm 4 m/S 637 mmHg 55%
    17:00 +12°C° 0 mm 3 m/S 636 mmHg 59%
    18:00 +11°C° 0 mm 3 m/S 636 mmHg 63%
    19:00 +9°C° 0 mm 2 m/S 636 mmHg 68%
    20:00 +9°C° 0 mm 1 m/S 636 mmHg 73%
    21:00 +7°C° 0 mm 1 m/S 635 mmHg 78%
    22:00 +7°C° 0 mm 1 m/S 635 mmHg 75%
    23:00 +7°C° 0 mm 1 m/S 635 mmHg 72%

    Morgen, 22 Mai, Mittwoch

    Zeit Temperatur Niederschläge Wind Luftdruck Luftfeuchtigkeit
    00:00 +8°C° 0 mm 1 m/S 635 mmHg 69%
    01:00 +7°C° 0 mm 1 m/S 635 mmHg 70%
    02:00 +7°C° 0 mm 1 m/S 635 mmHg 70%
    03:00 +6°C° 0 mm 1 m/S 634 mmHg 71%
    04:00 +8°C° 0 mm 1 m/S 635 mmHg 67%
    05:00 +9°C° 0 mm 1 m/S 636 mmHg 63%
    06:00 +10°C° 0 mm 1 m/S 636 mmHg 59%
    07:00 +12°C° 0 mm 1 m/S 637 mmHg 55%
    08:00 +14°C° 0 mm 2 m/S 637 mmHg 50%
    09:00 +15°C° 0 mm 2 m/S 637 mmHg 45%
    10:00 +16°C° 0 mm 2 m/S 637 mmHg 45%
    11:00 +17°C° 0 mm 2 m/S 637 mmHg 45%
    12:00 +18°C° 0 mm 3 m/S 637 mmHg 44%
    13:00 +18°C° 0 mm 3 m/S 636 mmHg 46%
    14:00 +18°C° 0 mm 3 m/S 636 mmHg 47%
    15:00 +18°C° 0 mm 3 m/S 635 mmHg 48%
    16:00 +17°C° 0 mm 2 m/S 635 mmHg 54%
    17:00 +16°C° 0 mm 2 m/S 634 mmHg 59%
    18:00 +15°C° 0 mm 2 m/S 633 mmHg 64%
    19:00 +14°C° 0 mm 2 m/S 633 mmHg 69%
    20:00 +13°C° 0 mm 1 m/S 633 mmHg 73%
    21:00 +11°C° 0 mm 1 m/S 633 mmHg 77%
    22:00 +11°C° 0 mm 1 m/S 632 mmHg 78%
    23:00 +10°C° 0 mm 2 m/S 632 mmHg 79%

    übermorgen, 23 Mai, Donnerstag

    Zeit Temperatur Niederschläge Wind Luftdruck Luftfeuchtigkeit
    00:00 +10°C° 0 mm 2 m/S 632 mmHg 79%
    01:00 +10°C° 0 mm 2 m/S 632 mmHg 78%
    02:00 +10°C° 0 mm 2 m/S 632 mmHg 77%
    03:00 +10°C° 0 mm 2 m/S 632 mmHg 75%
    04:00 +12°C° 0 mm 1 m/S 632 mmHg 71%
    05:00 +13°C° 0 mm 1 m/S 633 mmHg 66%
    06:00 +14°C° 0 mm 1 m/S 633 mmHg 61%
    07:00 +16°C° 0 mm 1 m/S 634 mmHg 58%
    08:00 +17°C° 0 mm 2 m/S 634 mmHg 54%
    09:00 +18°C° 0 mm 2 m/S 635 mmHg 50%
    10:00 +19°C° 0 mm 2 m/S 635 mmHg 49%
    11:00 +20°C° 0 mm 3 m/S 634 mmHg 49%
    12:00 +20°C° 0 mm 3 m/S 634 mmHg 48%
    13:00 +20°C° 0.2 mm 3 m/S 634 mmHg 49%
    14:00 +20°C° 0.2 mm 3 m/S 633 mmHg 50%
    15:00 +20°C° 0.2 mm 4 m/S 633 mmHg 51%
    16:00 +18°C° 0 mm 3 m/S 633 mmHg 57%
    17:00 +17°C° 0 mm 3 m/S 632 mmHg 63%
    18:00 +16°C° 0 mm 3 m/S 632 mmHg 69%
    19:00 +15°C° 0 mm 2 m/S 632 mmHg 71%
    20:00 +13°C° 0 mm 2 m/S 632 mmHg 74%
    21:00 +12°C° 0 mm 1 m/S 632 mmHg 76%
    22:00 +12°C° 0 mm 1 m/S 632 mmHg 77%
    23:00 +11°C° 0 mm 1 m/S 632 mmHg 79%

    24 Mai, Freitag

    Zeit Temperatur Niederschläge Wind Luftdruck Luftfeuchtigkeit
    00:00 +10°C° 0 mm 1 m/S 632 mmHg 80%
    01:00 +10°C° 0 mm 1 m/S 632 mmHg 80%
    02:00 +10°C° 0 mm 1 m/S 632 mmHg 79%
    03:00 +10°C° 0 mm 1 m/S 632 mmHg 78%
    04:00 +11°C° 0 mm 1 m/S 633 mmHg 75%
    05:00 +12°C° 0 mm 1 m/S 634 mmHg 72%
    06:00 +13°C° 0 mm 1 m/S 634 mmHg 69%
    07:00 +15°C° 0 mm 1 m/S 635 mmHg 65%
    08:00 +16°C° 0 mm 2 m/S 636 mmHg 61%
    09:00 +17°C° 0 mm 2 m/S 636 mmHg 56%
    10:00 +18°C° 0 mm 3 m/S 636 mmHg 55%
    11:00 +19°C° 0 mm 3 m/S 636 mmHg 53%
    12:00 +20°C° 0 mm 3 m/S 636 mmHg 51%
    13:00 +20°C° 0 mm 3 m/S 636 mmHg 52%
    14:00 +20°C° 0 mm 3 m/S 635 mmHg 52%
    15:00 +20°C° 0 mm 3 m/S 635 mmHg 53%
    16:00 +18°C° 0.2 mm 3 m/S 635 mmHg 58%
    17:00 +17°C° 0.2 mm 2 m/S 635 mmHg 64%
    18:00 +16°C° 0.2 mm 2 m/S 635 mmHg 70%
    19:00 +15°C° 0 mm 2 m/S 634 mmHg 74%
    20:00 +14°C° 0 mm 1 m/S 634 mmHg 79%
    21:00 +12°C° 0 mm 1 m/S 634 mmHg 83%
    22:00 +13°C° 0 mm 1 m/S 634 mmHg 82%
    23:00 +13°C° 0 mm 1 m/S 634 mmHg 80%

    25 Mai, Samstag

    Zeit Temperatur Niederschläge Wind Luftdruck Luftfeuchtigkeit
    00:00 +13°C° 0 mm 2 m/S 634 mmHg 79%
    01:00 +13°C° 0 mm 2 m/S 634 mmHg 76%
    02:00 +13°C° 0 mm 2 m/S 634 mmHg 74%
    03:00 +13°C° 0 mm 2 m/S 634 mmHg 72%
    04:00 +14°C° 0 mm 2 m/S 634 mmHg 67%
    05:00 +15°C° 0 mm 1 m/S 635 mmHg 62%
    06:00 +16°C° 0 mm 1 m/S 636 mmHg 57%
    07:00 +19°C° 0 mm 1 m/S 636 mmHg 51%
    08:00 +21°C° 0 mm 1 m/S 637 mmHg 45%
    09:00 +23°C° 0 mm 1 m/S 637 mmHg 39%
    10:00 +24°C° 0 mm 2 m/S 637 mmHg 39%
    11:00 +25°C° 0 mm 2 m/S 637 mmHg 39%
    12:00 +26°C° 0 mm 2 m/S 637 mmHg 39%
    13:00 +26°C° 0 mm 2 m/S 636 mmHg 39%
    14:00 +26°C° 0 mm 2 m/S 636 mmHg 39%
    15:00 +26°C° 0 mm 2 m/S 636 mmHg 39%
    16:00 +25°C° 0 mm 2 m/S 635 mmHg 44%
    17:00 +24°C° 0 mm 1 m/S 635 mmHg 48%
    18:00 +23°C° 0 mm 1 m/S 635 mmHg 53%
    19:00 +21°C° 0.2 mm 1 m/S 634 mmHg 51%
    20:00 +20°C° 0.2 mm 1 m/S 634 mmHg 49%
    21:00 +17°C° 0.2 mm 2 m/S 633 mmHg 47%
    22:00 +18°C° 0 mm 2 m/S 633 mmHg 42%
    23:00 +18°C° 0 mm 2 m/S 633 mmHg 37%

    26 Mai, Sonntag

    Zeit Temperatur Niederschläge Wind Luftdruck Luftfeuchtigkeit
    00:00 +18°C° 0 mm 2 m/S 633 mmHg 32%
    01:00 +18°C° 0.1 mm 3 m/S 633 mmHg 30%
    02:00 +18°C° 0.1 mm 3 m/S 633 mmHg 28%
    03:00 +18°C° 0.1 mm 3 m/S 633 mmHg 26%
    04:00 +19°C° 0.1 mm 3 m/S 633 mmHg 29%
    05:00 +19°C° 0.1 mm 3 m/S 633 mmHg 33%
    06:00 +20°C° 0.1 mm 3 m/S 634 mmHg 36%
    07:00 +23°C° 0 mm 2 m/S 634 mmHg 32%
    08:00 +26°C° 0 mm 2 m/S 635 mmHg 29%
    09:00 +28°C° 0 mm 2 m/S 636 mmHg 25%
    10:00 +29°C° 0 mm 2 m/S 636 mmHg 25%
    11:00 +29°C° 0 mm 2 m/S 636 mmHg 25%
    12:00 +30°C° 0 mm 2 m/S 636 mmHg 25%
    13:00 +29°C° 0 mm 2 m/S 635 mmHg 27%
    14:00 +29°C° 0 mm 2 m/S 635 mmHg 29%
    15:00 +28°C° 0 mm 2 m/S 634 mmHg 31%
    16:00 +26°C° 0.2 mm 2 m/S 634 mmHg 36%
    17:00 +25°C° 0.2 mm 2 m/S 634 mmHg 40%
    18:00 +23°C° 0.2 mm 2 m/S 634 mmHg 45%
    19:00 +20°C° 0.2 mm 2 m/S 634 mmHg 53%
    20:00 +18°C° 0.2 mm 2 m/S 633 mmHg 61%
    21:00 +16°C° 0.2 mm 2 m/S 633 mmHg 69%
    22:00 +16°C° 0.1 mm 2 m/S 633 mmHg 72%
    23:00 +15°C° 0.1 mm 1 m/S 633 mmHg 74%
    Mehr zeigen